En Direct

LFST 280900Z AUTO 03009KT CAVOK 05/01 Q1034 NOSIG


TAF LFST 280500Z 2806/0106 36007KT CAVOK PROB30 TEMPO 0102/0106 4000 BR

Nos Avions

7 avions disponibles et entretenus par un atelier agréé, permettant tous types de vols (formation, promenade, voyage…)

l'école de pilotage

PPL, LAPL, Vol de nuit, SEP… Toutes ces formations sont dispensées par nos instructeurs bénévoles.
Formation Théorique Mermoz via la FFA

Notre Plateforme

Nous sommes basés à l’aéroport de Strasbourg-Entzheim (LFST) en plein coeur de l’Alsace qui permet de voyager rapidement outre Rhin, mais également de profiter des paysages variés

Notre Actualité

Retrouvez tous nos articles dans l’onglet Actualités

Nos réseaux

Suivez-nous sur les réseaux sociaux